Weather History for KDUH - October, 2013

Change the Weather History Date:

Saturday, October 5, 2013

  Actual Average (KTOL) Record (KTOL)
Temperature  
Mean Temperature 68 °F 56 °F  
Max Temperature 73 °F 67 °F 88 °F (1951)
Min Temperature 64 °F 45 °F 26 °F (1965)
Degree Days  
Heating Degree Days 0 10  
Month to date heating degree days 45  
Since 1 July heating degree days 169  
Cooling Degree Days 4 1  
Month to date cooling degree days 5  
Year to date cooling degree days 789  
Growing Degree Days 18 (Base 50)    
Moisture  
Dew Point 65 °F    
Average Humidity 88    
Maximum Humidity 94    
Minimum Humidity 78    
Precipitation  
Precipitation 0.00 in 0.09 in 1.57 in (1955)
Month to date precipitation 0.44  
Year to date precipitation 26.54  
Snow  
Snow 0.00 in 0.00 in - ()
Month to date snowfall 0.0  
Since 1 July snowfall 0.0  
Since 1 September snowfall 0.0  
Snow Depth -    
Sea Level Pressure  
Sea Level Pressure 29.99 in    
Wind  
Wind Speed 3 mph (South)    
Max Wind Speed 9 mph    
Max Gust Speed -    
Visibility 7 miles    
Events Rain    
T = Trace of Precipitation, MM = Missing Value Source: NWS Daily Summary

Daily Weather History Graph

Daily Weather History Graph

Search for Another Location

Airport or City:

Trip Planner

Search our weather history database for the weather conditions in past years. The results will help you decide how hot, cold, wet, or windy it might be!

Date:

Astronomy

Oct. 05, 2013 Rise Set
Actual Time 7:36 AM EDT 7:09 PM EDT
Civil Twilight 7:08 AM EDT 7:36 PM EDT
Nautical Twilight 6:36 AM EDT 8:09 PM EDT
Astronomical Twilight 6:03 AM EDT 8:41 PM EDT
Moon 8:15 AM EDT (10/5) 7:26 PM EDT (10/5)
Length of Visible Light 12h 28m
Length of Day
11h 33m
New Moon, 0% of the Moon is Illuminated
Oct 5
New Moon
Oct 11
First Quarter
Oct 18
Full
Oct 26
Last Quarter
Nov 3
New

Hourly Weather History & Observations

Time (EDT) Temp. Dew Point Humidity Pressure Visibility Wind Dir Wind Speed Gust Speed Precip Events Conditions
12:15 AM 69.8 °F 62.6 °F 78% 30.03 in 10.0 mi WSW 5.8 mph - N/A Rain Light Rain
12:35 AM 69.8 °F 62.6 °F 78% 30.03 in 10.0 mi SW 5.8 mph - N/A Rain Light Rain
12:55 AM 69.8 °F 62.6 °F 78% 30.04 in 10.0 mi SSW 9.2 mph - N/A Rain Light Rain
1:15 AM 68.0 °F 62.6 °F 83% 30.03 in 10.0 mi SSW 5.8 mph - N/A Rain Light Rain
1:35 AM 68.0 °F 60.8 °F 78% 30.03 in 10.0 mi SSW 5.8 mph - N/A Rain Light Rain
1:55 AM 68.0 °F 60.8 °F 78% 30.04 in 10.0 mi South 4.6 mph - N/A Rain Light Rain
2:15 AM 68.0 °F 62.6 °F 83% 30.05 in 10.0 mi SSW 3.5 mph - N/A Rain Light Rain
2:35 AM 68.0 °F 62.6 °F 83% 30.05 in 10.0 mi Calm Calm - N/A   Overcast
2:55 AM 66.2 °F 62.6 °F 88% 30.05 in 10.0 mi South 3.5 mph - N/A   Overcast
3:15 AM 66.2 °F 62.6 °F 88% 30.03 in 10.0 mi SSE 3.5 mph - N/A   Mostly Cloudy
3:35 AM 66.2 °F 62.6 °F 88% 30.03 in 10.0 mi SSW 4.6 mph - N/A   Scattered Clouds
3:55 AM 68.0 °F 62.6 °F 83% 30.02 in 10.0 mi SSW 4.6 mph - N/A   Scattered Clouds
4:15 AM 68.0 °F 62.6 °F 83% 30.02 in 7.0 mi Calm Calm - N/A Rain Light Rain
4:35 AM 68.0 °F 62.6 °F 83% 30.01 in 10.0 mi SSW 3.5 mph - N/A   Mostly Cloudy
4:55 AM 66.2 °F 62.6 °F 88% 30.01 in 10.0 mi South 3.5 mph - N/A   Scattered Clouds
5:15 AM 66.2 °F 62.6 °F 88% 30.01 in 10.0 mi SSW 4.6 mph - N/A   Clear
5:35 AM 68.0 °F 64.4 °F 88% 30.01 in 10.0 mi SSW 5.8 mph - N/A   Clear
5:55 AM 68.0 °F 64.4 °F 88% 30.02 in 10.0 mi SSW 4.6 mph - N/A   Clear
6:15 AM 68.0 °F 64.4 °F 88% 30.01 in 7.0 mi SSW 3.5 mph - N/A   Clear
6:35 AM 68.0 °F 64.4 °F 88% 30.03 in 7.0 mi Calm Calm - N/A   Clear
6:55 AM 64.4 °F 62.6 °F 94% 30.03 in 1.5 mi Calm Calm - N/A   Mist
7:15 AM 64.4 °F 62.6 °F 94% 30.03 in 1.2 mi Calm Calm - N/A   Overcast
7:35 AM 64.4 °F 62.6 °F 94% 30.03 in 2.0 mi Calm Calm - N/A   Overcast
7:55 AM 66.2 °F 62.6 °F 88% 30.03 in 1.8 mi Calm Calm - N/A   Overcast
8:15 AM 66.2 °F 64.4 °F 94% 30.05 in 3.0 mi North 4.6 mph - N/A   Overcast
8:35 AM 66.2 °F 62.6 °F 88% 30.04 in 5.0 mi NNE 3.5 mph - N/A Rain Light Rain
8:55 AM 66.2 °F 62.6 °F 88% 30.03 in 7.0 mi NE 3.5 mph - N/A   Overcast
9:15 AM 66.2 °F 64.4 °F 94% 30.03 in 7.0 mi Calm Calm - N/A   Overcast
9:35 AM 68.0 °F 64.4 °F 88% 30.03 in 5.0 mi Calm Calm - N/A   Overcast
9:55 AM 68.0 °F 64.4 °F 88% 30.03 in 5.0 mi Calm Calm - N/A   Overcast
10:15 AM 68.0 °F 64.4 °F 88% 30.02 in 5.0 mi Calm Calm - N/A   Overcast
10:35 AM 69.8 °F 66.2 °F 88% 30.03 in 7.0 mi Calm Calm - N/A   Overcast
10:55 AM 69.8 °F 66.2 °F 88% 30.03 in 7.0 mi Calm Calm - N/A   Overcast
11:15 AM 69.8 °F 64.4 °F 83% 30.03 in 4.0 mi SSE 3.5 mph - N/A Rain Rain
11:35 AM 69.8 °F 66.2 °F 88% 30.03 in 2.5 mi Calm Calm - N/A Rain Rain
11:55 AM 69.8 °F 66.2 °F 88% 30.02 in 1.2 mi South 3.5 mph - N/A Rain Rain
12:15 PM 69.8 °F 66.2 °F 88% 30.02 in 1.5 mi Calm Calm - N/A Rain Light Rain
12:35 PM 69.8 °F 68.0 °F 94% 30.01 in 2.0 mi SSE 4.6 mph - N/A   Overcast
12:55 PM 69.8 °F 68.0 °F 94% 30.00 in 3.0 mi SE 4.6 mph - N/A   Mostly Cloudy
1:15 PM 69.8 °F 68.0 °F 94% 30.01 in 3.0 mi South 5.8 mph - N/A   Overcast
1:35 PM 71.6 °F 68.0 °F 88% 30.00 in 5.0 mi South 3.5 mph - N/A   Overcast
1:55 PM 71.6 °F 68.0 °F 88% 30.00 in 7.0 mi SSW 4.6 mph - N/A   Overcast
2:15 PM 71.6 °F 68.0 °F 88% 29.99 in 7.0 mi SSE 5.8 mph - N/A Rain Light Rain
2:35 PM 71.6 °F 68.0 °F 88% 29.98 in 10.0 mi SSE 3.5 mph - N/A Rain Light Rain
2:55 PM 71.6 °F 68.0 °F 88% 29.98 in 10.0 mi SSW 3.5 mph - N/A   Mostly Cloudy
3:15 PM 71.6 °F 68.0 °F 88% 29.98 in 10.0 mi Calm Calm - N/A   Mostly Cloudy
3:35 PM 71.6 °F 68.0 °F 88% 29.97 in 10.0 mi South 3.5 mph - N/A   Mostly Cloudy
3:55 PM 73.4 °F 68.0 °F 83% 29.97 in 10.0 mi Calm Calm - N/A   Overcast
4:15 PM 73.4 °F 68.0 °F 83% 29.95 in 10.0 mi Calm Calm - N/A   Mostly Cloudy
4:35 PM 73.4 °F 68.0 °F 83% 29.95 in 10.0 mi Calm Calm - N/A   Scattered Clouds
4:55 PM 73.4 °F 68.0 °F 83% 29.94 in 10.0 mi Calm Calm - N/A   Scattered Clouds
5:15 PM 73.4 °F 68.0 °F 83% 29.95 in 10.0 mi Calm Calm - N/A   Clear
5:35 PM 73.4 °F 68.0 °F 83% 29.94 in 10.0 mi Calm Calm - N/A   Scattered Clouds
5:55 PM 73.4 °F 68.0 °F 83% 29.94 in 10.0 mi South 3.5 mph - N/A   Mostly Cloudy
6:15 PM 73.4 °F 68.0 °F 83% 29.93 in 10.0 mi SSE 3.5 mph - N/A   Overcast
6:35 PM 71.6 °F 68.0 °F 88% 29.93 in 10.0 mi Calm Calm - N/A   Scattered Clouds
6:55 PM 71.6 °F 68.0 °F 88% 29.93 in 10.0 mi SSE 3.5 mph - N/A   Clear
7:15 PM 69.8 °F 66.2 °F 88% 29.93 in 10.0 mi Calm Calm - N/A   Clear
7:35 PM 69.8 °F 66.2 °F 88% 29.93 in 10.0 mi Calm Calm - N/A   Clear
7:55 PM 69.8 °F 66.2 °F 88% 29.93 in 7.0 mi Calm Calm - N/A   Clear
8:15 PM 68.0 °F 64.4 °F 88% 29.93 in 5.0 mi Calm Calm - N/A   Scattered Clouds
8:35 PM 68.0 °F 64.4 °F 88% 29.93 in 4.0 mi Calm Calm - N/A   Scattered Clouds
8:55 PM 68.0 °F 66.2 °F 94% 29.93 in 4.0 mi Calm Calm - N/A   Scattered Clouds
9:15 PM 69.8 °F 66.2 °F 88% 29.93 in 5.0 mi Calm Calm - N/A   Scattered Clouds
9:35 PM 69.8 °F 68.0 °F 94% 29.92 in 5.0 mi East 3.5 mph - N/A   Scattered Clouds
9:55 PM 69.8 °F 66.2 °F 88% 29.92 in 4.0 mi ESE 3.5 mph - N/A   Scattered Clouds
10:15 PM 69.8 °F 68.0 °F 94% 29.91 in 7.0 mi Calm Calm - N/A   Scattered Clouds
10:35 PM 69.8 °F 68.0 °F 94% 29.92 in 7.0 mi South 3.5 mph - N/A Rain Light Rain
10:55 PM 69.8 °F 68.0 °F 94% 29.90 in 7.0 mi SSE 5.8 mph - N/A   Light Drizzle
11:15 PM 69.8 °F 68.0 °F 94% 29.91 in 7.0 mi Calm Calm - N/A   Scattered Clouds
11:35 PM 69.8 °F 68.0 °F 94% 29.90 in 7.0 mi Calm Calm - N/A   Scattered Clouds
11:55 PM 69.8 °F 68.0 °F 94% 29.89 in 7.0 mi SSE 3.5 mph - N/A   Clear